Regional Weather Roundup
Issued by NWS

Home | Current Version | Previous Version | Graphics & Text | Print | Product List | Glossary On
Versions: 1 2 3 4 5 6 7 8 9 10 11 12 13 14 15 16 17 18 19 20 21 22 23 24 25 26 27 28 29 30 31 32 33 34 35 36 37 38 39 40 41 42 43 44 45 46 47 48 49 50
000
ASUS43 KLMK 171202
RWRKY
KENTUCKY REGIONAL WEATHER ROUNDUP
NATIONAL WEATHER SERVICE LOUISVILLE KY
700 AM EST FRI NOV 17 2017

NOTE "FAIR" INDICATES FEW OR NO CLOUDS BELOW 12,000 FEET
WITH NO SIGNIFICANT WEATHER AND/OR OBSTRUCTIONS TO VISIBILITY.

KYZ001>023-026-027-061>063-070>075-171300-
WESTERN AND SOUTH CENTRAL KENTUCKY

CITY           SKY/WX    TMP DP  RH WIND       PRES   REMARKS
PADUCAH        CLEAR     32  29  88 E6        30.14F FOG     WCI  26
HENDERSON      FOG       32  31  96 SE9       30.20S VSB 1/2 WCI  24
OWENSBORO      CLOUDY    34  33  96 SE12      30.21F FOG     WCI  25
HOPKINSVILLE   CLEAR     31  31  99 E5        30.17F WCI  27
BOWLING GREEN  CLOUDY    36  36 100 E8        30.21F FOG     WCI  30
GLASGOW        NOT AVBL
$$

KYZ024-025-028>034-038-045-046-053-171300-
NORTH CENTRAL KENTUCKY

CITY           SKY/WX    TMP DP  RH WIND       PRES   REMARKS
LOUISVILLE/SDF CLOUDY    35  30  82 SE10      30.24R WCI  27
LOUISVILLE/LOU CLOUDY    35  31  85 SE8       30.25R WCI  29
FORT KNOX      CLOUDY    33  30  89 E7        30.21R WCI  27
$$

KYZ035>037-039>044-047>052-055>060-089>105-171300-
NORTHEAST KENTUCKY

CITY           SKY/WX    TMP DP  RH WIND       PRES   REMARKS
LEXINGTON      CLOUDY    33  28  81 SE9       30.23S WCI  25
COVINGTON      CLOUDY    35  30  82 SE12      30.23S WCI  27
FRANKFORT      CLOUDY    35  28  75 E7        30.23R WCI  29
$$

KYZ054-064>069-076>088-106>120-171300-
SOUTHEAST KENTUCKY

CITY           SKY/WX    TMP DP  RH WIND       PRES   REMARKS
JACKSON        CLOUDY    31  27  85 SE3       30.23F
LONDON         CLOUDY    33  30  88 E5        30.23R WCI  29
SOMERSET       CLOUDY    32  32 100 E5        30.25S WCI  27
MIDDLESBORO    MOCLDY    35  35  99 CALM      30.24S
MONTICELLO     CLOUDY    35  34  96 VRB6      30.24S WCI  30
$$





USA.gov is the U.S. government's official web portal to all federal, state and local government web resources and services.